Location: ?????????
(54.7630°N, 39.4991°E)
Time: 22:02:20
(UTC+00:00)

Cosmos 1356 Rocket - Pass Details

Date: 14 April 2026
Orbit: 514 x 556 km, 81.1° (Epoch: 13 May)

Event Time Altitude Azimuth Distance (km) Brightness Sun altitude
Exits shadow 20:15:36 69° 25° (NNE) 599 3.5 -24.1°
Drops below altitude 10° 20:19:12 10° 15° (NNE) 1,838 6.7 -24.2°
Sets 20:21:22 0° 15° (NNE) 2,730 7.8 -24.3°
